Time,TemperatureF,DewpointF,PressureIn,WindDirection,WindDirectionDegrees,WindSpeedMPH,WindSpeedGustMPH,Humidity,HourlyPrecipIn,Conditions,Clouds,dailyrainin,SoftwareType,DateUTC
2013-05-12 00:03:00,-999.0,-99.9,-100.00,West,260,3.0,7.0,71,0.00,,,-99.99,,2013-05-12 04:03:00,
2013-05-12 00:12:00,42.0,33.0,-100.00,West,265,4.0,7.0,70,0.00,,,-99.99,,2013-05-12 04:12:00,
2013-05-12 00:22:00,42.0,33.0,-100.00,WSW,240,2.0,7.0,71,0.00,,,-99.99,,2013-05-12 04:22:00,
2013-05-12 00:33:00,42.0,33.0,-100.00,West,265,3.0,6.0,71,0.00,,,-99.99,,2013-05-12 04:33:00,
2013-05-12 00:43:00,41.0,33.0,-100.00,WSW,255,2.0,6.0,72,0.00,,,-99.99,,2013-05-12 04:43:00,
2013-05-12 00:52:00,41.0,33.0,-100.00,SW,235,2.0,5.0,74,0.00,,,-99.99,,2013-05-12 04:52:00,
2013-05-12 01:02:00,41.0,33.0,-100.00,WSW,240,3.0,5.0,74,0.00,,,-99.99,,2013-05-12 05:02:00,
2013-05-12 01:12:00,40.0,33.0,-100.00,SW,225,2.0,4.0,75,0.00,,,-99.99,,2013-05-12 05:12:00,
2013-05-12 01:22:00,40.0,33.0,-100.00,SW,220,1.0,4.0,77,0.00,,,-99.99,,2013-05-12 05:22:00,
2013-05-12 01:32:00,39.0,33.0,-100.00,SSW,205,2.0,4.0,78,0.00,,,-99.99,,2013-05-12 05:32:00,
2013-05-12 01:42:00,39.0,33.0,-100.00,SW,215,2.0,6.0,79,0.00,,,-99.99,,2013-05-12 05:42:00,
2013-05-12 01:51:00,39.0,33.0,-100.00,SW,225,3.0,6.0,78,0.00,,,-99.99,,2013-05-12 05:51:00,
2013-05-12 02:02:00,39.0,33.0,-100.00,SW,215,1.0,4.0,79,0.00,,,-99.99,,2013-05-12 06:02:00,
2013-05-12 02:11:00,38.0,33.0,-100.00,SW,230,4.0,6.0,81,0.00,,,-99.99,,2013-05-12 06:11:00,
2013-05-12 02:21:00,39.0,33.0,-100.00,SW,230,5.0,7.0,79,0.00,,,-99.99,,2013-05-12 06:21:00,
2013-05-12 02:32:00,39.0,33.0,-100.00,SW,230,5.0,9.0,79,0.00,,,-99.99,,2013-05-12 06:32:00,
2013-05-12 02:42:00,39.0,33.0,-100.00,SW,235,5.0,7.0,80,0.00,,,-99.99,,2013-05-12 06:42:00,
2013-05-12 02:52:00,39.0,33.0,-100.00,SW,230,6.0,9.0,80,0.00,,,-99.99,,2013-05-12 06:52:00,
2013-05-12 03:01:00,39.0,33.0,-100.00,SW,235,5.0,8.0,80,0.00,,,-99.99,,2013-05-12 07:01:00,
2013-05-12 03:11:00,39.0,33.0,-100.00,SW,230,4.0,9.0,80,0.00,,,-99.99,,2013-05-12 07:11:00,
2013-05-12 03:21:00,39.0,33.0,-100.00,SW,235,4.0,7.0,81,0.00,,,-99.99,,2013-05-12 07:21:00,
2013-05-12 03:32:00,38.0,33.0,-100.00,SW,235,3.0,7.0,80,0.00,,,-99.99,,2013-05-12 07:32:00,
2013-05-12 03:42:00,37.0,32.0,-100.00,SSW,205,1.0,4.0,83,0.00,,,-99.99,,2013-05-12 07:42:00,
2013-05-12 03:52:00,37.0,33.0,-100.00,SW,230,3.0,4.0,85,0.00,,,-99.99,,2013-05-12 07:52:00,
2013-05-12 04:02:00,38.0,33.0,-100.00,SW,230,4.0,6.0,84,0.00,,,-99.99,,2013-05-12 08:02:00,
2013-05-12 04:11:00,38.0,33.0,-100.00,SW,235,3.0,6.0,82,0.00,,,-99.99,,2013-05-12 08:11:00,
2013-05-12 04:21:00,38.0,33.0,-100.00,SW,215,4.0,6.0,83,0.00,,,-99.99,,2013-05-12 08:21:00,
2013-05-12 04:32:00,38.0,33.0,-100.00,SW,235,4.0,6.0,84,0.00,,,-99.99,,2013-05-12 08:32:00,
2013-05-12 04:42:00,38.0,33.0,-100.00,SW,235,6.0,9.0,84,0.00,,,-99.99,,2013-05-12 08:42:00,
2013-05-12 04:52:00,38.0,33.0,-100.00,SW,225,4.0,8.0,83,0.00,,,-99.99,,2013-05-12 08:52:00,
2013-05-12 05:01:00,38.0,33.0,-100.00,SW,230,4.0,7.0,83,0.00,,,-99.99,,2013-05-12 09:01:00,
2013-05-12 05:11:00,38.0,33.0,-100.00,SW,230,4.0,7.0,83,0.00,,,-99.99,,2013-05-12 09:11:00,
2013-05-12 05:21:00,38.0,33.0,-100.00,WSW,240,4.0,9.0,82,0.00,,,-99.99,,2013-05-12 09:21:00,
2013-05-12 05:33:00,38.0,33.0,-100.00,WSW,255,5.0,8.0,81,0.00,,,-99.99,,2013-05-12 09:33:00,
2013-05-12 05:42:00,38.0,33.0,-100.00,SW,230,6.0,9.0,82,0.00,,,-99.99,,2013-05-12 09:42:00,
2013-05-12 05:53:00,38.0,33.0,-100.00,WSW,240,4.0,9.0,82,0.00,,,-99.99,,2013-05-12 09:53:00,
2013-05-12 06:03:00,38.0,33.0,-100.00,WSW,245,5.0,11.0,81,0.00,,,-99.99,,2013-05-12 10:03:00,
2013-05-12 06:12:00,38.0,33.0,-100.00,WSW,250,6.0,10.0,81,0.00,,,-99.99,,2013-05-12 10:12:00,
2013-05-12 06:22:00,38.0,33.0,-100.00,SW,235,6.0,9.0,81,0.00,,,-99.99,,2013-05-12 10:22:00,
2013-05-12 06:33:00,38.0,33.0,-100.00,WSW,255,7.0,10.0,80,0.00,,,-99.99,,2013-05-12 10:33:00,
2013-05-12 06:42:00,38.0,33.0,-100.00,WSW,255,4.0,12.0,80,0.00,,,-99.99,,2013-05-12 10:42:00,
2013-05-12 06:52:00,39.0,33.0,-100.00,SW,230,6.0,17.0,79,0.00,,,-99.99,,2013-05-12 10:52:00,
2013-05-12 07:02:00,39.0,33.0,-100.00,WSW,245,6.0,10.0,79,0.00,,,-99.99,,2013-05-12 11:02:00,
2013-05-12 07:12:00,39.0,33.0,-100.00,WSW,250,5.0,12.0,79,0.00,,,-99.99,,2013-05-12 11:12:00,
2013-05-12 07:22:00,39.0,33.0,-100.00,West,270,6.0,9.0,78,0.00,,,-99.99,,2013-05-12 11:22:00,
2013-05-12 07:32:00,40.0,33.0,-100.00,SW,235,7.0,12.0,76,0.00,,,-99.99,,2013-05-12 11:32:00,
2013-05-12 07:42:00,40.0,33.0,-100.00,West,265,9.0,17.0,74,0.00,,,-99.99,,2013-05-12 11:42:00,
2013-05-12 07:52:00,40.0,33.0,-100.00,West,265,9.0,18.0,73,0.00,,,-99.99,,2013-05-12 11:52:00,
2013-05-12 08:02:00,41.0,32.0,-100.00,WNW,285,9.0,19.0,71,0.00,,,-99.99,,2013-05-12 12:02:00,
2013-05-12 08:11:00,41.0,32.0,-100.00,West,275,7.0,18.0,71,0.00,,,-99.99,,2013-05-12 12:11:00,
2013-05-12 08:21:00,42.0,33.0,-100.00,West,270,6.0,18.0,70,0.00,,,-99.99,,2013-05-12 12:21:00,
2013-05-12 08:32:00,41.0,31.0,-100.00,WNW,285,7.0,20.0,67,0.00,,,-99.99,,2013-05-12 12:32:00,
2013-05-12 08:41:00,41.0,31.0,-100.00,West,265,10.0,18.0,67,0.00,,,-99.99,,2013-05-12 12:41:00,
2013-05-12 08:51:00,41.0,31.0,-100.00,West,265,10.0,18.0,67,0.00,,,-99.99,,2013-05-12 12:51:00,
2013-05-12 09:02:00,42.0,30.0,-100.00,West,265,11.0,19.0,63,0.00,,,-99.99,,2013-05-12 13:02:00,
2013-05-12 09:11:00,42.0,30.0,-100.00,West,270,7.0,20.0,62,0.00,,,-99.99,,2013-05-12 13:11:00,
2013-05-12 09:21:00,43.0,31.0,-100.00,West,265,10.0,17.0,62,0.00,,,-99.99,,2013-05-12 13:21:00,
2013-05-12 09:32:00,43.0,29.0,-100.00,West,280,12.0,21.0,59,0.00,,,-99.99,,2013-05-12 13:32:00,
2013-05-12 09:42:00,43.0,29.0,-100.00,West,265,9.0,21.0,59,0.00,,,-99.99,,2013-05-12 13:42:00,
2013-05-12 09:52:00,43.0,29.0,-100.00,West,265,9.0,19.0,58,0.00,,,-99.99,,2013-05-12 13:52:00,
2013-05-12 10:01:00,43.0,29.0,-100.00,West,260,9.0,18.0,59,0.00,,,-99.99,,2013-05-12 14:01:00,
2013-05-12 10:11:00,43.0,29.0,-100.00,West,265,11.0,19.0,58,0.00,,,-99.99,,2013-05-12 14:11:00,
2013-05-12 10:21:00,43.0,29.0,-100.00,WNW,295,7.0,19.0,57,0.00,,,-99.99,,2013-05-12 14:21:00,
2013-05-12 10:32:00,43.0,29.0,-100.00,WSW,255,7.0,17.0,56,0.00,,,-99.99,,2013-05-12 14:32:00,
2013-05-12 10:42:00,46.0,30.0,-100.00,WNW,290,6.0,19.0,53,0.00,,,-99.99,,2013-05-12 14:42:00,
2013-05-12 10:52:00,44.0,28.0,-100.00,West,265,11.0,21.0,54,0.00,,,-99.99,,2013-05-12 14:52:00,
2013-05-12 11:01:00,45.0,29.0,-100.00,West,260,9.0,23.0,54,0.00,,,-99.99,,2013-05-12 15:01:00,
2013-05-12 11:11:00,45.0,29.0,-100.00,WNW,285,8.0,18.0,54,0.00,,,-99.99,,2013-05-12 15:11:00,
2013-05-12 11:21:00,45.0,29.0,-100.00,West,260,7.0,22.0,53,0.00,,,-99.99,,2013-05-12 15:21:00,
2013-05-12 11:34:00,45.0,29.0,-100.00,West,280,6.0,19.0,53,0.00,,,-99.99,,2013-05-12 15:34:00,
2013-05-12 11:42:00,46.0,28.0,-100.00,West,270,8.0,21.0,50,0.00,,,-99.99,,2013-05-12 15:42:00,
2013-05-12 11:52:00,45.0,28.0,-100.00,West,270,7.0,19.0,51,0.00,,,-99.99,,2013-05-12 15:52:00,
2013-05-12 12:02:00,46.0,28.0,-100.00,West,265,11.0,18.0,50,0.00,,,-99.99,,2013-05-12 16:02:00,
2013-05-12 12:12:00,46.0,28.0,-100.00,WNW,285,10.0,17.0,50,0.00,,,-99.99,,2013-05-12 16:12:00,
2013-05-12 12:23:00,45.0,29.0,-100.00,WSW,255,7.0,19.0,51,0.00,,,-99.99,,2013-05-12 16:23:00,
2013-05-12 12:33:00,46.0,28.0,-100.00,West,280,6.0,17.0,50,0.00,,,-99.99,,2013-05-12 16:33:00,
2013-05-12 12:42:00,46.0,28.0,-100.00,West,260,9.0,17.0,48,0.00,,,-99.99,,2013-05-12 16:42:00,
2013-05-12 12:52:00,46.0,28.0,-100.00,WSW,255,4.0,19.0,49,0.00,,,-99.99,,2013-05-12 16:52:00,
2013-05-12 13:02:00,46.0,28.0,-100.00,West,270,11.0,20.0,48,0.00,,,-99.99,,2013-05-12 17:02:00,
2013-05-12 13:12:00,47.0,27.0,-100.00,WSW,245,6.0,24.0,46,0.00,,,-99.99,,2013-05-12 17:12:00,
2013-05-12 13:22:00,47.0,28.0,-100.00,WSW,245,10.0,22.0,47,0.00,,,-99.99,,2013-05-12 17:22:00,
2013-05-12 13:32:00,48.0,28.0,-100.00,West,270,9.0,19.0,46,0.00,,,-99.99,,2013-05-12 17:32:00,
2013-05-12 13:42:00,48.0,28.0,-100.00,West,270,9.0,19.0,46,0.00,,,-99.99,,2013-05-12 17:42:00,
2013-05-12 13:52:00,47.0,28.0,-100.00,West,265,7.0,21.0,46,0.00,,,-99.99,,2013-05-12 17:52:00,
2013-05-12 14:01:00,48.0,26.0,-100.00,West,280,15.0,24.0,42,0.00,,,-99.99,,2013-05-12 18:01:00,
2013-05-12 14:12:00,49.0,28.0,-100.00,WNW,285,6.0,20.0,45,0.00,,,-99.99,,2013-05-12 18:12:00,
2013-05-12 14:22:00,49.0,27.0,-100.00,West,275,6.0,21.0,42,0.00,,,-99.99,,2013-05-12 18:22:00,
2013-05-12 14:32:00,50.0,27.0,-100.00,West,265,6.0,21.0,40,0.00,,,-99.99,,2013-05-12 18:32:00,
2013-05-12 14:42:00,49.0,26.0,-100.00,West,270,12.0,21.0,40,0.00,,,-99.99,,2013-05-12 18:42:00,
2013-05-12 14:51:00,49.0,27.0,-100.00,West,260,7.0,20.0,42,0.00,,,-99.99,,2013-05-12 18:51:00,
2013-05-12 15:01:00,49.0,26.0,-100.00,WNW,285,7.0,25.0,40,0.00,,,-99.99,,2013-05-12 19:01:00,
2013-05-12 15:11:00,49.0,27.0,-100.00,West,265,7.0,27.0,41,0.00,,,-99.99,,2013-05-12 19:11:00,
2013-05-12 15:22:00,50.0,26.0,-100.00,West,270,11.0,21.0,38,0.00,,,-99.99,,2013-05-12 19:22:00,
2013-05-12 15:32:00,49.0,26.0,-100.00,West,275,11.0,22.0,40,0.00,,,-99.99,,2013-05-12 19:32:00,
2013-05-12 15:42:00,49.0,26.0,-100.00,West,270,9.0,19.0,41,0.00,,,-99.99,,2013-05-12 19:42:00,
2013-05-12 15:52:00,49.0,26.0,-100.00,West,260,11.0,19.0,39,0.00,,,-99.99,,2013-05-12 19:52:00,
2013-05-12 16:02:00,49.0,26.0,-100.00,West,265,12.0,24.0,40,0.00,,,-99.99,,2013-05-12 20:02:00,
2013-05-12 16:11:00,50.0,26.0,-100.00,West,265,9.0,20.0,40,0.00,,,-99.99,,2013-05-12 20:11:00,
2013-05-12 16:21:00,50.0,26.0,-100.00,West,270,14.0,25.0,38,0.00,,,-99.99,,2013-05-12 20:21:00,
2013-05-12 16:32:00,51.0,26.0,-100.00,West,280,12.0,26.0,38,0.00,,,-99.99,,2013-05-12 20:32:00,
2013-05-12 16:42:00,50.0,26.0,-100.00,West,275,11.0,22.0,38,0.00,,,-99.99,,2013-05-12 20:42:00,
2013-05-12 16:51:00,50.0,26.0,-100.00,West,270,11.0,21.0,38,0.00,,,-99.99,,2013-05-12 20:51:00,
2013-05-12 17:01:00,50.0,26.0,-100.00,West,265,13.0,22.0,39,0.00,,,-99.99,,2013-05-12 21:01:00,
2013-05-12 17:11:00,49.0,25.0,-100.00,West,275,12.0,22.0,39,0.00,,,-99.99,,2013-05-12 21:11:00,
2013-05-12 17:21:00,50.0,26.0,-100.00,West,265,7.0,25.0,39,0.00,,,-99.99,,2013-05-12 21:21:00,
2013-05-12 17:33:00,50.0,27.0,-100.00,WNW,295,4.0,17.0,40,0.00,,,-99.99,,2013-05-12 21:33:00,
2013-05-12 17:42:00,49.0,26.0,-100.00,West,280,15.0,24.0,40,0.00,,,-99.99,,2013-05-12 21:42:00,
2013-05-12 17:53:00,49.0,26.0,-100.00,West,275,9.0,18.0,40,0.00,,,-99.99,,2013-05-12 21:53:00,
2013-05-12 18:02:00,49.0,26.0,-100.00,West,260,16.0,29.0,40,0.00,,,-99.99,,2013-05-12 22:02:00,
2013-05-12 18:12:00,49.0,27.0,-100.00,West,260,6.0,28.0,43,0.00,,,-99.99,,2013-05-12 22:12:00,
2013-05-12 18:23:00,49.0,27.0,-100.00,West,275,11.0,19.0,41,0.00,,,-99.99,,2013-05-12 22:23:00,
2013-05-12 18:33:00,48.0,26.0,-100.00,WSW,255,11.0,25.0,41,0.00,,,-99.99,,2013-05-12 22:33:00,
2013-05-12 18:42:00,48.0,26.0,-100.00,West,260,9.0,21.0,41,0.00,,,-99.99,,2013-05-12 22:42:00,
2013-05-12 18:52:00,48.0,26.0,-100.00,WSW,245,12.0,27.0,41,0.00,,,-99.99,,2013-05-12 22:52:00,
2013-05-12 19:02:00,48.0,27.0,-100.00,West,280,8.0,18.0,43,0.00,,,-99.99,,2013-05-12 23:02:00,
2013-05-12 19:12:00,47.0,27.0,-100.00,West,280,6.0,23.0,44,0.00,,,-99.99,,2013-05-12 23:12:00,
2013-05-12 19:22:00,48.0,27.0,-100.00,WSW,255,7.0,21.0,44,0.00,,,-99.99,,2013-05-12 23:22:00,
2013-05-12 19:32:00,47.0,26.0,-100.00,NW,305,6.0,22.0,44,0.00,,,-99.99,,2013-05-12 23:32:00,
2013-05-12 19:42:00,46.0,27.0,-100.00,West,280,7.0,16.0,45,0.00,,,-99.99,,2013-05-12 23:42:00,
2013-05-12 19:52:00,46.0,26.0,-100.00,WNW,300,4.0,17.0,45,0.00,,,-99.99,,2013-05-12 23:52:00,
2013-05-12 20:01:00,46.0,26.0,-100.00,West,270,4.0,15.0,46,0.00,,,-99.99,,2013-05-13 00:01:00,
2013-05-12 20:11:00,46.0,26.0,-100.00,West,270,6.0,15.0,46,0.00,,,-99.99,,2013-05-13 00:11:00,
2013-05-12 20:21:00,45.0,26.0,-100.00,WNW,290,4.0,13.0,47,0.00,,,-99.99,,2013-05-13 00:21:00,
2013-05-12 20:32:00,45.0,25.0,-100.00,WNW,285,7.0,14.0,45,0.00,,,-99.99,,2013-05-13 00:32:00,
2013-05-12 20:42:00,45.0,26.0,-100.00,WNW,285,6.0,12.0,46,0.00,,,-99.99,,2013-05-13 00:42:00,
2013-05-12 20:51:00,45.0,27.0,-100.00,WNW,295,4.0,9.0,48,0.00,,,-99.99,,2013-05-13 00:51:00,
2013-05-12 21:01:00,45.0,26.0,-100.00,West,275,4.0,16.0,47,0.00,,,-99.99,,2013-05-13 01:01:00,
2013-05-12 21:11:00,44.0,26.0,-100.00,WNW,300,4.0,13.0,49,0.00,,,-99.99,,2013-05-13 01:11:00,
2013-05-12 21:22:00,44.0,26.0,-100.00,West,280,4.0,11.0,49,0.00,,,-99.99,,2013-05-13 01:22:00,
2013-05-12 21:32:00,44.0,25.0,-100.00,WNW,290,4.0,12.0,48,0.00,,,-99.99,,2013-05-13 01:32:00,
2013-05-12 21:42:00,43.0,26.0,-100.00,WNW,285,2.0,8.0,51,0.00,,,-99.99,,2013-05-13 01:42:00,
2013-05-12 21:52:00,42.0,26.0,-100.00,WNW,285,3.0,9.0,52,0.00,,,-99.99,,2013-05-13 01:52:00,
2013-05-12 22:02:00,42.0,27.0,-100.00,WNW,295,2.0,10.0,54,0.00,,,-99.99,,2013-05-13 02:02:00,
2013-05-12 22:11:00,42.0,26.0,-100.00,WNW,300,3.0,9.0,51,0.00,,,-99.99,,2013-05-13 02:11:00,
2013-05-12 22:21:00,42.0,26.0,-100.00,NNW,330,2.0,6.0,54,0.00,,,-99.99,,2013-05-13 02:21:00,
2013-05-12 22:32:00,42.0,26.0,-100.00,WNW,295,2.0,10.0,52,0.00,,,-99.99,,2013-05-13 02:32:00,
2013-05-12 22:42:00,42.0,25.0,-100.00,NW,315,3.0,9.0,51,0.00,,,-99.99,,2013-05-13 02:42:00,
2013-05-12 22:51:00,41.0,26.0,-100.00,NW,325,1.0,9.0,53,0.00,,,-99.99,,2013-05-13 02:51:00,
2013-05-12 23:02:00,41.0,27.0,-100.00,West,275,0.0,7.0,57,0.00,,,-99.99,,2013-05-13 03:02:00,
2013-05-12 23:11:00,40.0,26.0,-100.00,WNW,290,2.0,8.0,57,0.00,,,-99.99,,2013-05-13 03:11:00,
2013-05-12 23:21:00,40.0,26.0,-100.00,West,280,2.0,6.0,56,0.00,,,-99.99,,2013-05-13 03:21:00,
2013-05-12 23:32:00,40.0,25.0,-100.00,West,275,3.0,7.0,55,0.00,,,-99.99,,2013-05-13 03:32:00,
2013-05-12 23:42:00,40.0,25.0,-100.00,West,260,4.0,6.0,54,0.00,,,-99.99,,2013-05-13 03:42:00,
2013-05-12 23:52:00,40.0,24.0,-100.00,West,260,4.0,7.0,53,0.00,,,-99.99,,2013-05-13 03:52:00,